Roanoke, VA

12:46 AM EST on November 17, 2019 (GMT -0500)
Roanoke Regional-Woodrum

Weather History for KROA - September, 2019

Change the Weather History Date:

Friday, September 6, 2019

  Actual Average Record
Temperature  
Mean Temperature 79 °F 72 °F  
Max Temperature 89 °F 82 °F 99 °F (1954)
Min Temperature 69 °F 61 °F 37 °F (1924)
Degree Days  
Heating Degree Days 0 0  
Month to date heating degree days 0 0  
Since 1 July heating degree days 0 1  
Cooling Degree Days 14 7  
Month to date cooling degree days 76 45  
Year to date cooling degree days 1439 1092  
Growing Degree Days 28 (Base 50)    
Moisture  
Dew Point 57 °F    
Average Humidity 47    
Maximum Humidity 73    
Minimum Humidity 21    
Precipitation  
Precipitation 0.01 in 0.14 in 2.37 in (1996)
Month to date precipitation 0.06 0.82  
Year to date precipitation 30.76 28.95  
Snow  
Snow 0.00 in - - ()
Month to date snowfall 0.0  
Since 1 July snowfall T  
Since 1 September snowfall 0.0  
Snow Depth 0.00 in    
Sea Level Pressure  
Sea Level Pressure 29.86 in    
Wind  
Wind Speed 10 mph (NNW)    
Max Wind Speed 18 mph    
Max Gust Speed 24 mph    
Visibility 10 miles    
Events      
T = Trace of Precipitation, MM = Missing Value Source: NWS Daily Summary

Daily Weather History Graph

Daily Weather History Graph

Search for Another Location

Airport or City:

Astronomy

Sep. 06, 2019 Rise Set
Actual Time 6:54 AM EDT 7:41 PM EDT
Civil Twilight 6:27 AM EDT 8:08 PM EDT
Nautical Twilight 5:56 AM EDT 8:39 PM EDT
Astronomical Twilight 5:24 AM EDT 9:11 PM EDT
Moon 2:51 PM EDT (9/6) 12:06 AM EDT (9/6)
Length of Visible Light 13h 40m
Length of Day
12h 47m
First Quarter, 55% of the Moon is Illuminated
Sep 6
First Quarter
Sep 14
Full
Sep 21
Last Quarter
Sep 28
New
Oct 5
First Quarter

Hourly Weather History & Observations

Time (EDT) Temp. Heat Index Dew Point Humidity Pressure Visibility Wind Dir Wind Speed Gust Speed Precip Events Conditions
12:54 AM 73.0 °F - 63.0 °F 71% 29.90 in 10.0 mi NNE 12.7 mph - N/A   Partly Cloudy
1:54 AM 72.0 °F - 61.0 °F 68% 29.90 in 10.0 mi NE 10.4 mph - N/A   Mostly Cloudy
2:54 AM 71.1 °F - 61.0 °F 70% 29.89 in 10.0 mi NNE 9.2 mph - N/A   Mostly Cloudy
3:54 AM 71.1 °F - 61.0 °F 70% 29.87 in 10.0 mi North 11.5 mph - N/A   Partly Cloudy
4:16 AM 71.1 °F - 61.0 °F 70% 29.91 in 10.0 mi North 10.4 mph - N/A   Mostly Cloudy
4:37 AM 70.0 °F - 61.0 °F 73% 29.90 in 10.0 mi North 9.2 mph - N/A   Scattered Clouds
4:54 AM 70.0 °F - 61.0 °F 73% 29.86 in 10.0 mi North 10.4 mph - N/A   Clear
5:54 AM 70.0 °F - 61.0 °F 73% 29.86 in 10.0 mi North 9.2 mph - N/A   Clear
6:54 AM 69.1 °F - 61.0 °F 75% 29.87 in 10.0 mi NE 6.9 mph - N/A   Clear
7:54 AM 70.0 °F - 61.0 °F 73% 29.87 in 10.0 mi NNE 9.2 mph - N/A   Partly Cloudy
8:54 AM 72.0 °F - 61.0 °F 68% 29.88 in 10.0 mi NNE 9.2 mph - N/A   Partly Cloudy
9:54 AM 73.0 °F - 62.1 °F 68% 29.88 in 10.0 mi NW 13.8 mph - N/A   Mostly Cloudy
10:54 AM 77.0 °F - 62.1 °F 60% 29.87 in 10.0 mi NNW 10.4 mph - N/A   Mostly Cloudy
11:54 AM 80.1 °F 80.9 °F 60.1 °F 50% 29.86 in 10.0 mi North 4.6 mph - N/A   Mostly Cloudy
12:54 PM 82.0 °F 81.4 °F 55.0 °F 39% 29.83 in 10.0 mi WNW 12.7 mph 16.1 mph N/A   Partly Cloudy
1:54 PM 86.0 °F 84.0 °F 53.1 °F 32% 29.81 in 10.0 mi NW 17.3 mph - N/A   Partly Cloudy
2:54 PM 87.1 °F 85.1 °F 54.0 °F 32% 29.80 in 10.0 mi WNW 10.4 mph 21.9 mph N/A   Partly Cloudy
3:54 PM 87.1 °F - 51.1 °F 29% 29.79 in 10.0 mi West 12.7 mph 18.4 mph N/A   Clear
4:54 PM 87.1 °F - 50.0 °F 28% 29.79 in 10.0 mi West 13.8 mph - N/A   Clear
5:54 PM 87.1 °F - 43.0 °F 21% 29.80 in 10.0 mi NW 13.8 mph 24.2 mph N/A   Clear
6:54 PM 84.9 °F - 46.9 °F 27% 29.81 in 10.0 mi WNW 15.0 mph 21.9 mph N/A   Clear
7:54 PM 82.0 °F - 48.9 °F 31% 29.82 in 10.0 mi NW 11.5 mph - N/A   Partly Cloudy
8:54 PM 80.1 °F - 50.0 °F 35% 29.83 in 10.0 mi WNW 11.5 mph - N/A   Clear
9:54 PM 78.1 °F - 52.0 °F 40% 29.87 in 10.0 mi NNW 11.5 mph - N/A   Mostly Cloudy
10:54 PM 73.0 °F - 55.9 °F 55% 29.88 in 10.0 mi WNW 8.1 mph - 0.01 in   Partly Cloudy
11:54 PM 73.0 °F - 55.0 °F 53% 29.88 in 10.0 mi Calm Calm - N/A   Clear